Tracking 30995 objects as of 5-Jul-2025
HD Live streaming from Space Station
objects crossing your sky now

IRIDIUM 33 DEB

Track IRIDIUM 33 DEB now!
10-day predictions


NORAD ID: 34651
Int'l Code: 1997-051KC
Perigee: 713.9 km
Apogee: 926.1 km
Inclination: 86.3 °
Period: 101.1 minutes
Semi major axis: 7191 km
RCS: 0.0077 m2 (small)
Launch date: September 14, 1997
Source: United States (US)
Launch site: TYURATAM MISSILE AND SPACE COMPLEX (TTMTR)

Note: This is SATELLITE DEBRIS
Your satellite tracking list
Your tracking list is empty




NASA's NSSDC Master Catalog

Two Line Element Set (TLE):
1 34651U 97051KC  25186.52881710  .00004558  00000-0  17778-2 0  9999
2 34651  86.2853 208.5191 0147574 359.2821   0.8133 14.23700215836150
Source of the keplerian elements: AFSPC